• In Latvia
  • List of Countries
  • For 7 days
  • Water Temperature
  • Satellite Maps
  • Weather Map
  • Weather Widgets
  • user-avatar
    Login

    Hourly Weather Campo Grande

    Today, 24 October, Tuesday

    Time Temperature Precipitation Wind Pressure Humidity
    00:00 +23°C° 0 mm 2 mps 710 mmHg 84%
    01:00 +23°C° 0 mm 2 mps 709 mmHg 85%
    02:00 +23°C° 0 mm 2 mps 709 mmHg 86%
    03:00 +23°C° 0 mm 2 mps 709 mmHg 86%
    04:00 +21°C° 0 mm 2 mps 709 mmHg 86%
    05:00 +21°C° 0 mm 2 mps 709 mmHg 86%
    06:00 +24°C° 0 mm 2 mps 710 mmHg 79%
    07:00 +26°C° 0 mm 3 mps 711 mmHg 71%
    08:00 +28°C° 0 mm 3 mps 712 mmHg 63%
    09:00 +30°C° 0.3 mm 3 mps 712 mmHg 57%
    10:00 +31°C° 0.3 mm 3 mps 712 mmHg 52%
    11:00 +34°C° 0.3 mm 2 mps 712 mmHg 47%
    12:00 +34°C° 0.2 mm 2 mps 711 mmHg 47%
    13:00 +33°C° 0.2 mm 1 mps 710 mmHg 46%
    14:00 +33°C° 0.2 mm 1 mps 710 mmHg 46%
    15:00 +32°C° 0 mm 1 mps 709 mmHg 49%
    16:00 +31°C° 0 mm 1 mps 709 mmHg 52%
    17:00 +31°C° 0 mm 1 mps 709 mmHg 54%
    18:00 +29°C° 0.4 mm 2 mps 709 mmHg 59%
    19:00 +28°C° 0.4 mm 2 mps 709 mmHg 64%
    20:00 +27°C° 0.4 mm 2 mps 709 mmHg 69%
    21:00 +26°C° 0 mm 2 mps 709 mmHg 71%
    22:00 +26°C° 0 mm 2 mps 709 mmHg 72%
    23:00 +26°C° 0 mm 2 mps 709 mmHg 74%

    Tomorrow, 25 October, Wednesday

    Time Temperature Precipitation Wind Pressure Humidity
    00:00 +26°C° 0 mm 2 mps 709 mmHg 74%
    01:00 +25°C° 0 mm 2 mps 709 mmHg 75%
    02:00 +25°C° 0 mm 2 mps 708 mmHg 75%
    03:00 +25°C° 0.5 mm 2 mps 708 mmHg 77%
    04:00 +24°C° 0.5 mm 2 mps 708 mmHg 80%
    05:00 +24°C° 0.5 mm 2 mps 709 mmHg 82%
    06:00 +26°C° 0 mm 3 mps 709 mmHg 74%
    07:00 +28°C° 0 mm 4 mps 710 mmHg 66%
    08:00 +30°C° 0 mm 4 mps 711 mmHg 59%
    09:00 +32°C° 0 mm 4 mps 711 mmHg 52%
    10:00 +34°C° 0 mm 3 mps 711 mmHg 46%
    11:00 +36°C° 0 mm 3 mps 711 mmHg 39%
    12:00 +36°C° 0 mm 3 mps 710 mmHg 39%
    13:00 +36°C° 0 mm 3 mps 709 mmHg 38%
    14:00 +37°C° 0 mm 3 mps 708 mmHg 37%
    15:00 +36°C° 0 mm 3 mps 707 mmHg 40%
    16:00 +35°C° 0 mm 3 mps 707 mmHg 42%
    17:00 +34°C° 0 mm 2 mps 706 mmHg 45%
    18:00 +32°C° 0 mm 2 mps 707 mmHg 47%
    19:00 +31°C° 0 mm 2 mps 707 mmHg 48%
    20:00 +30°C° 0 mm 2 mps 707 mmHg 50%
    21:00 +29°C° 0 mm 2 mps 707 mmHg 51%
    22:00 +29°C° 0 mm 1 mps 707 mmHg 51%
    23:00 +28°C° 0 mm 1 mps 707 mmHg 52%

    Day after tomorrow, 26 October, Thursday

    Time Temperature Precipitation Wind Pressure Humidity
    00:00 +28°C° 0.1 mm 1 mps 707 mmHg 54%
    01:00 +27°C° 0.1 mm 2 mps 706 mmHg 55%
    02:00 +27°C° 0.1 mm 2 mps 706 mmHg 56%
    03:00 +26°C° 1 mm 2 mps 706 mmHg 62%
    04:00 +25°C° 1 mm 2 mps 707 mmHg 67%
    05:00 +24°C° 1 mm 2 mps 707 mmHg 72%
    06:00 +26°C° 0.1 mm 2 mps 708 mmHg 68%
    07:00 +28°C° 0.1 mm 2 mps 708 mmHg 63%
    08:00 +29°C° 0.1 mm 3 mps 709 mmHg 59%
    09:00 +31°C° 0 mm 3 mps 709 mmHg 52%
    10:00 +34°C° 0 mm 4 mps 709 mmHg 45%
    11:00 +36°C° 0 mm 4 mps 709 mmHg 38%
    12:00 +36°C° 0 mm 4 mps 708 mmHg 40%
    13:00 +35°C° 0 mm 4 mps 707 mmHg 41%
    14:00 +35°C° 0 mm 4 mps 706 mmHg 42%
    15:00 +34°C° 0 mm 4 mps 706 mmHg 43%
    16:00 +34°C° 0 mm 3 mps 706 mmHg 45%
    17:00 +33°C° 0 mm 3 mps 706 mmHg 46%
    18:00 +30°C° 0.3 mm 3 mps 706 mmHg 51%
    19:00 +29°C° 0.3 mm 3 mps 706 mmHg 57%
    20:00 +27°C° 0.3 mm 2 mps 706 mmHg 62%
    21:00 +27°C° 0 mm 2 mps 706 mmHg 63%
    22:00 +27°C° 0 mm 2 mps 706 mmHg 63%
    23:00 +27°C° 0 mm 2 mps 706 mmHg 63%

    27 October, Friday

    Time Temperature Precipitation Wind Pressure Humidity
    00:00 +27°C° 0 mm 2 mps 706 mmHg 63%
    01:00 +27°C° 0 mm 3 mps 706 mmHg 62%
    02:00 +27°C° 0 mm 3 mps 705 mmHg 62%
    03:00 +27°C° 0 mm 4 mps 706 mmHg 62%
    04:00 +26°C° 0 mm 4 mps 706 mmHg 62%
    05:00 +26°C° 0 mm 5 mps 706 mmHg 63%
    06:00 +28°C° 0 mm 5 mps 707 mmHg 59%
    07:00 +29°C° 0 mm 5 mps 707 mmHg 55%
    08:00 +32°C° 0 mm 5 mps 708 mmHg 52%
    09:00 +34°C° 0 mm 5 mps 708 mmHg 46%
    10:00 +36°C° 0 mm 5 mps 708 mmHg 40%
    11:00 +39°C° 0 mm 5 mps 708 mmHg 35%
    12:00 +39°C° 0 mm 5 mps 707 mmHg 34%
    13:00 +39°C° 0 mm 6 mps 706 mmHg 33%
    14:00 +39°C° 0 mm 6 mps 705 mmHg 33%
    15:00 +37°C° 0 mm 5 mps 705 mmHg 37%
    16:00 +36°C° 0 mm 4 mps 705 mmHg 41%
    17:00 +34°C° 0 mm 3 mps 705 mmHg 45%
    18:00 +32°C° 0.1 mm 2 mps 705 mmHg 51%
    19:00 +30°C° 0.1 mm 2 mps 705 mmHg 57%
    20:00 +28°C° 0.1 mm 2 mps 705 mmHg 63%
    21:00 +27°C° 0.4 mm 3 mps 705 mmHg 70%
    22:00 +26°C° 0.4 mm 5 mps 705 mmHg 76%
    23:00 +24°C° 0.4 mm 6 mps 705 mmHg 83%

    28 October, Saturday

    Time Temperature Precipitation Wind Pressure Humidity
    00:00 +25°C° 0.2 mm 5 mps 705 mmHg 83%
    01:00 +25°C° 0.2 mm 5 mps 705 mmHg 83%
    02:00 +25°C° 0.2 mm 4 mps 705 mmHg 84%
    03:00 +25°C° 1.2 mm 3 mps 705 mmHg 84%
    04:00 +25°C° 1.2 mm 3 mps 705 mmHg 84%
    05:00 +25°C° 1.2 mm 2 mps 706 mmHg 84%
    06:00 +25°C° 1.7 mm 2 mps 706 mmHg 83%
    07:00 +25°C° 1.7 mm 2 mps 707 mmHg 83%
    08:00 +26°C° 1.7 mm 2 mps 708 mmHg 83%
    09:00 +25°C° 4.3 mm 2 mps 708 mmHg 85%
    10:00 +25°C° 4.3 mm 2 mps 708 mmHg 87%
    11:00 +24°C° 4.3 mm 2 mps 708 mmHg 90%
    12:00 +25°C° 1.6 mm 2 mps 707 mmHg 86%
    13:00 +26°C° 1.6 mm 3 mps 706 mmHg 82%
    14:00 +27°C° 1.6 mm 3 mps 706 mmHg 78%
    15:00 +27°C° 0.1 mm 3 mps 705 mmHg 76%
    16:00 +28°C° 0.1 mm 2 mps 705 mmHg 75%
    17:00 +28°C° 0.1 mm 1 mps 705 mmHg 74%
    18:00 +27°C° 0.3 mm 2 mps 705 mmHg 77%
    19:00 +26°C° 0.3 mm 2 mps 705 mmHg 81%
    20:00 +25°C° 0.3 mm 2 mps 705 mmHg 85%
    21:00 +25°C° 0.2 mm 3 mps 705 mmHg 86%
    22:00 +25°C° 0.2 mm 3 mps 704 mmHg 88%
    23:00 +24°C° 0.2 mm 3 mps 704 mmHg 89%

    29 October, Sunday

    Time Temperature Precipitation Wind Pressure Humidity
    00:00 +23°C° 0.8 mm 4 mps 704 mmHg 89%
    01:00 +23°C° 0.8 mm 4 mps 704 mmHg 90%
    02:00 +22°C° 0.8 mm 4 mps 704 mmHg 90%
    03:00 +23°C° 0.8 mm 4 mps 704 mmHg 89%
    04:00 +23°C° 0.8 mm 4 mps 704 mmHg 88%
    05:00 +23°C° 0.8 mm 4 mps 705 mmHg 87%
    06:00 +26°C° 0.2 mm 4 mps 705 mmHg 80%
    07:00 +28°C° 0.2 mm 5 mps 706 mmHg 72%
    08:00 +30°C° 0.2 mm 5 mps 707 mmHg 65%
    09:00 +32°C° 0.4 mm 6 mps 706 mmHg 59%
    10:00 +34°C° 0.4 mm 6 mps 706 mmHg 53%
    11:00 +36°C° 0.4 mm 6 mps 706 mmHg 47%
    12:00 +36°C° 0 mm 6 mps 705 mmHg 45%
    13:00 +36°C° 0 mm 6 mps 704 mmHg 44%
    14:00 +38°C° 0 mm 6 mps 703 mmHg 42%
    15:00 +36°C° 0 mm 5 mps 703 mmHg 45%
    16:00 +35°C° 0 mm 4 mps 702 mmHg 48%
    17:00 +34°C° 0 mm 3 mps 702 mmHg 51%
    18:00 +33°C° 0.1 mm 3 mps 702 mmHg 53%
    19:00 +31°C° 0.1 mm 2 mps 702 mmHg 55%
    20:00 +30°C° 0.1 mm 2 mps 702 mmHg 57%
    21:00 +29°C° 0.3 mm 2 mps 702 mmHg 61%
    22:00 +28°C° 0.3 mm 3 mps 702 mmHg 65%
    23:00 +27°C° 0.3 mm 3 mps 702 mmHg 69%

    30 October, Monday

    Time Temperature Precipitation Wind Pressure Humidity
    00:00 +26°C° 3.1 mm 4 mps 703 mmHg 75%
    01:00 +25°C° 3.1 mm 4 mps 703 mmHg 81%
    02:00 +23°C° 3.1 mm 5 mps 703 mmHg 88%
    03:00 +23°C° 9.4 mm 4 mps 704 mmHg 90%
    04:00 +23°C° 9.4 mm 2 mps 704 mmHg 93%
    05:00 +23°C° 9.4 mm 1 mps 705 mmHg 95%
    06:00 +23°C° 2.1 mm 1 mps 706 mmHg 94%
    07:00 +24°C° 2.1 mm 1 mps 706 mmHg 93%
    08:00 +24°C° 2.1 mm 2 mps 707 mmHg 91%
    09:00 +25°C° 0.1 mm 2 mps 707 mmHg 89%
    10:00 +25°C° 0.1 mm 3 mps 707 mmHg 87%
    11:00 +25°C° 0.1 mm 3 mps 706 mmHg 85%
    12:00 +26°C° 0.1 mm 3 mps 706 mmHg 80%
    13:00 +27°C° 0.1 mm 2 mps 706 mmHg 74%
    14:00 +27°C° 0.1 mm 2 mps 706 mmHg 69%
    15:00 +27°C° 0.2 mm 2 mps 706 mmHg 72%
    16:00 +27°C° 0.2 mm 2 mps 706 mmHg 74%
    17:00 +27°C° 0.2 mm 2 mps 705 mmHg 76%
    18:00 +26°C° 0 mm 2 mps 706 mmHg 80%
    19:00 +24°C° 0 mm 2 mps 706 mmHg 84%
    20:00 +23°C° 0 mm 2 mps 706 mmHg 88%
    21:00 +22°C° 0 mm 3 mps 706 mmHg 88%
    22:00 +22°C° 0 mm 3 mps 706 mmHg 87%
    23:00 +21°C° 0 mm 4 mps 706 mmHg 87%
    Show more